STARLINK-2254

Last updated on Sat Apr 24 2021 00:02:02 GMT+0000 (Coordinated Universal Time)

1 48005U 21024AE 21113.25001157 .00077460 00000-0 55214-3 0 9999 2 48005 53.0487 55.6799 0001340 79.3924 82.2965 15.73157833 1825

Satellite not in orbit